This is the latest recevied weather packets stored in our database for station/object K6CED. If no packets are shown the sender has not sent any weather packets the latest 10 day(s).
| Time | Temp. | Humidity | Pressure | Rain* | Wind** | Luminosity | Snow |
|---|---|---|---|---|---|---|---|
| 1788143422 | 25° C | 67% | 1013.8 hPa | 0 mm | - | 0 W/m² | - |
| 1788143121 | 25° C | 67% | 1013.8 hPa | 0 mm | - | 1 W/m² | - |
| 1788142817 | 25.56° C | 65% | 1013.8 hPa | 0 mm | - | 2 W/m² | - |
| 1788142515 | 26.11° C | 63% | 1013.8 hPa | 0 mm | - | 4 W/m² | - |
| 1788142212 | 26.11° C | 62% | 1013.6 hPa | 0 mm | - | 7 W/m² | - |
| 1788141907 | 26.11° C | 61% | 1013.5 hPa | 0 mm | - | 11 W/m² | - |
| 1788141600 | 26.67° C | 60% | 1013.4 hPa | 0 mm | - | 15 W/m² | - |
| 1788141296 | 26.67° C | 59% | 1013.5 hPa | 0 mm | - | 18 W/m² | - |
| 1788140991 | 27.22° C | 58% | 1013.5 hPa | 0 mm | - | 22 W/m² | - |
| 1788140686 | 27.78° C | 56% | 1013.3 hPa | 0 mm | - | 25 W/m² | - |
| 1788140382 | 27.78° C | 55% | 1013.3 hPa | 0 mm | - | 30 W/m² | - |
| 1788140078 | 28.89° C | 53% | 1013.3 hPa | 0 mm | - | 37 W/m² | - |
| 1788139777 | 28.33° C | 53% | 1013.6 hPa | 0 mm | - | 42 W/m² | - |
| 1788139473 | 29.44° C | 51% | 1013.4 hPa | 0 mm | - | 50 W/m² | - |
| 1788139166 | 28.89° C | 50% | 1013.7 hPa | 0 mm | - | 58 W/m² | - |
| 1788138861 | 28.89° C | 50% | 1013.6 hPa | 0 mm | - | 64 W/m² | - |
| 1788138557 | 29.44° C | 48% | 1013.5 hPa | 0 mm | - | 75 W/m² | - |
| 1788138252 | 30° C | 48% | 1013.5 hPa | 0 mm | - | 86 W/m² | - |
| 1788137948 | 30° C | 48% | 1013.7 hPa | 0 mm | - | 98 W/m² | - |
| 1788137643 | 30° C | 47% | 1013.5 hPa | 0 mm | - | 107 W/m² | - |
| 1788137337 | 30.56° C | 45% | 1013.7 hPa | 0 mm | - | 113 W/m² | - |
| 1788137034 | 31.11° C | 44% | 1013.9 hPa | 0 mm | - | 134 W/m² | - |
| 1788136729 | 30.56° C | 44% | 1013.7 hPa | 0 mm | - | 155 W/m² | - |
| 1788136425 | 31.11° C | 43% | 1013.3 hPa | 0 mm | - | 173 W/m² | - |
| 1788136124 | 31.11° C | 43% | 1013.5 hPa | 0 mm | - | 192 W/m² | - |
* Rain latest hour (hover to see other rain measurements)
** Current wind speed in m/s (hover to see current wind gust speed)